TimePST,TemperatureF,Dew PointF,Humidity,Sea Level PressureIn,VisibilityMPH,Wind Direction,Wind SpeedMPH,Gust SpeedMPH,PrecipitationIn,Events,Conditions,WindDirDegrees,DateUTC
12:21 AM,28.4,21.2,74,30.49,10.0,NNW,9.2,-,N/A,,Unknown,330,2013-01-01 08:21:00
12:52 AM,28.0,21.0,75,30.53,10.0,Calm,Calm,-,N/A,,Unknown,0,2013-01-01 08:52:00
1:20 AM,28.4,21.2,74,30.49,10.0,WNW,5.8,-,N/A,,Overcast,300,2013-01-01 09:20:00
1:36 AM,28.4,21.2,74,30.50,10.0,WNW,8.1,-,N/A,,Unknown,300,2013-01-01 09:36:00
1:52 AM,28.0,19.9,72,30.56,10.0,WNW,6.9,-,N/A,,Unknown,290,2013-01-01 09:52:00
2:06 AM,28.4,19.4,69,30.51,10.0,WNW,6.9,-,N/A,,Overcast,300,2013-01-01 10:06:00
2:52 AM,28.0,21.0,75,30.57,10.0,NW,5.8,-,N/A,,Overcast,310,2013-01-01 10:52:00
3:52 AM,28.0,21.0,75,30.58,10.0,NW,6.9,-,N/A,,Overcast,320,2013-01-01 11:52:00
4:13 AM,26.6,21.2,80,30.53,10.0,NW,5.8,-,N/A,,Unknown,320,2013-01-01 12:13:00
4:52 AM,27.0,19.9,75,30.59,10.0,NNW,6.9,-,N/A,,Unknown,330,2013-01-01 12:52:00
5:10 AM,28.4,19.4,69,30.54,10.0,NW,3.5,-,N/A,,Overcast,320,2013-01-01 13:10:00
5:52 AM,28.0,21.0,75,30.59,10.0,Calm,Calm,-,N/A,,Overcast,0,2013-01-01 13:52:00
6:06 AM,26.6,19.4,74,30.55,10.0,Calm,Calm,-,N/A,,Unknown,0,2013-01-01 14:06:00
6:36 AM,26.6,19.4,74,30.55,10.0,Calm,Calm,-,N/A,,Overcast,0,2013-01-01 14:36:00
6:52 AM,26.6,21.2,80,30.55,10.0,Calm,Calm,-,N/A,,Overcast,0,2013-01-01 14:52:00
7:34 AM,26.6,19.4,74,30.56,10.0,NW,4.6,-,N/A,,Unknown,320,2013-01-01 15:34:00
7:52 AM,27.0,19.9,75,30.61,10.0,NW,3.5,-,N/A,,Unknown,320,2013-01-01 15:52:00
8:22 AM,28.4,21.2,74,30.57,10.0,Calm,Calm,-,N/A,,Overcast,0,2013-01-01 16:22:00
8:52 AM,27.0,19.9,75,30.63,10.0,West,3.5,-,N/A,,Overcast,260,2013-01-01 16:52:00
9:52 AM,28.0,19.9,72,30.67,10.0,North,4.6,-,N/A,,Overcast,360,2013-01-01 17:52:00
10:52 AM,28.0,19.0,69,30.66,10.0,Calm,Calm,-,N/A,,Overcast,0,2013-01-01 18:52:00
11:52 AM,28.0,19.0,69,30.64,10.0,Calm,Calm,-,N/A,,Overcast,0,2013-01-01 19:52:00
12:52 PM,28.9,19.0,67,30.63,10.0,Calm,Calm,-,N/A,,Overcast,0,2013-01-01 20:52:00
1:52 PM,28.9,19.0,67,30.65,10.0,South,3.5,-,N/A,,Overcast,170,2013-01-01 21:52:00
2:52 PM,28.0,19.0,69,30.65,10.0,South,4.6,-,N/A,,Overcast,190,2013-01-01 22:52:00
3:52 PM,28.0,19.9,72,30.66,10.0,WNW,4.6,-,N/A,,Overcast,300,2013-01-01 23:52:00
4:52 PM,27.0,19.9,75,30.66,10.0,Calm,Calm,-,N/A,,Overcast,0,2013-01-02 00:52:00
5:52 PM,27.0,19.9,75,30.66,10.0,NW,3.5,-,N/A,,Overcast,310,2013-01-02 01:52:00
6:52 PM,27.0,19.9,75,30.66,10.0,WNW,4.6,-,N/A,,Overcast,300,2013-01-02 02:52:00
7:52 PM,27.0,21.0,78,30.66,10.0,Calm,Calm,-,N/A,,Overcast,0,2013-01-02 03:52:00
8:52 PM,27.0,21.0,78,30.66,10.0,North,8.1,-,N/A,,Overcast,360,2013-01-02 04:52:00
9:52 PM,27.0,21.0,78,30.67,10.0,North,4.6,-,N/A,,Overcast,350,2013-01-02 05:52:00
10:52 PM,27.0,21.0,78,30.68,10.0,NNW,4.6,-,N/A,,Overcast,330,2013-01-02 06:52:00
11:52 PM,27.0,21.0,78,30.67,10.0,North,5.8,-,N/A,,Overcast,360,2013-01-02 07:52:00